Location: Newark
(29.9790°N, 31.1340°E)
Time: 11:23:37
(UTC+00:00)

Transit 2A Rocket - Pass Details

Date: 27 January 2020
Orbit: 591 x 912 km, 66.7° (Epoch: 25 February)

Event Time Altitude Azimuth Distance (km) Brightness Sun altitude
Rises 11:28:10 0° 344° (NNW) 3,084 7.8 37.8°
Reaches altitude 10° 11:30:33 10° 352° (N) 2,214 7.1 37.6°
Maximum altitude 11:35:19 40° 62° (ENE) 1,120 5.9 37.1°
Drops below altitude 10° 11:40:30 10° 132° (SE) 2,408 7.8 36.6°
Sets 11:43:11 0° 139° (SE) 3,386 8.6 36.4°
